| time (UTC) | temp F | wind direction | speed MPH | gust MPH | rain 1hr in | rain 24hr in | rain mn in | humidity % | barometer mb |
| 20260508200335 | 60 | 242 | 2.0 | 0.0 | 0.00 | 0.00 | 0.00 | 32 | 1013.8 |
| 20260508190338 | 60 | 252 | 2.0 | 0.0 | 0.00 | 0.00 | 0.00 | 32 | 1013.0 |
| 20260508180405 | 60 | 2 | 1.0 | 0.0 | 0.00 | 0.00 | 0.00 | 36 | 1013.4 |
| 20260508170340 | 57 | 346 | 0.0 | 0.0 | 0.00 | 0.00 | 0.00 | 36 | 1013.2 |
| 20260508160351 | 55 | 250 | 0.0 | 0.0 | 0.00 | 0.00 | 0.00 | 61 | 1013.7 |
| 20260508150351 | 46 | 250 | 0.0 | 0.0 | 0.00 | 0.00 | 0.00 | 83 | 1013.1 |
| 20260508140400 | 41 | 250 | 0.0 | 0.0 | 0.00 | 0.00 | 0.00 | 94 | 1012.8 |
| 20260508130338 | 39 | 250 | 0.0 | 0.0 | 0.00 | 0.00 | 0.00 | 97 | 1012.3 |
| 20260508120334 | 39 | 250 | 0.0 | 0.0 | 0.00 | 0.00 | 0.00 | 99 | 1013.0 |
| 20260508110358 | 39 | 250 | 0.0 | 0.0 | 0.00 | 0.00 | 0.00 | 98 | 1012.3 |
| 20260508100413 | 40 | 250 | 0.0 | 0.0 | 0.00 | 0.00 | 0.00 | 96 | 1012.2 |
| 20260508090344 | 41 | 250 | 0.0 | 0.0 | 0.00 | 0.00 | 0.00 | 94 | 1012.4 |
| 20260508080335 | 43 | 250 | 0.0 | 0.0 | 0.00 | 0.00 | 0.00 | 90 | 1012.6 |
| 20260508070338 | 44 | 250 | 0.0 | 0.0 | 0.00 | 0.00 | 0.00 | 89 | 1012.9 |
| 20260508060339 | 46 | 250 | 0.0 | 0.0 | 0.00 | 0.00 | 0.00 | 85 | 1012.2 |
| 20260508050348 | 49 | 250 | 0.0 | 0.0 | 0.00 | 0.00 | 0.00 | 80 | 1011.9 |
| 20260508040410 | 53 | 250 | 0.0 | 0.0 | 0.00 | 0.00 | 0.00 | 74 | 1011.4 |
| 20260508030338 | 62 | 356 | 0.0 | 0.0 | 0.00 | 0.00 | 0.00 | 60 | 1011.5 |
| 20260508020335 | 65 | 340 | 1.0 | 0.0 | 0.00 | 0.00 | 0.00 | 51 | 1010.3 |
| 20260508010347 | 68 | 4 | 1.0 | 0.0 | 0.00 | 0.00 | 0.00 | 46 | 1010.3 |
| 20260508000412 | 72 | 316 | 0.0 | 0.0 | 0.00 | 0.00 | 0.00 | 37 | 1010.5 |
| 20260507230341 | 74 | 216 | 0.0 | 0.0 | 0.00 | 0.00 | 0.00 | 28 | 1010.1 |
| 20260507220336 | 74 | 200 | 0.0 | 0.0 | 0.00 | 0.00 | 0.00 | 32 | 1010.9 |
| 20260507210341 | 71 | 59 | 1.0 | 0.0 | 0.00 | 0.00 | 0.00 | 35 | 1011.6 |